Location: Valencia
(39.4696°N, 0.3770°W)
Time: 15:01:07
(UTC+02:00)

ISS - Visible Passes

Search period start: 21 May 2018 00:00
Search period end: 31 May 2018 00:00
Orbit: 402 x 407 km, 51.6° (Epoch: 22 May)

Date Brightness Start Highest point End Pass type
(mag) Time Alt. Az. Time Alt. Az. Time Alt. Az.
21 May -0.8 00:43:34 10° WNW 00:45:49 17° NNW 00:48:04 10° NNE visible
21 May -0.7 03:58:43 10° NNW 04:00:56 17° NNE 04:03:10 10° ENE visible
21 May -3.9 05:34:33 10° NW 05:37:49 88° NNE 05:41:04 10° SE visible
21 May -3.5 22:13:42 10° SSW 22:16:50 44° SE 22:19:57 10° ENE visible
21 May -1.4 23:50:42 10° W 23:53:26 24° NNW 23:56:09 10° NNE visible
22 May -0.1 01:30:10 10° NNW 01:30:50 10° N 01:31:29 10° N visible
22 May -0.4 03:06:51 10° NNW 03:08:29 13° NNE 03:10:06 10° NE visible
22 May -2.7 04:42:27 10° NW 04:45:36 45° NNE 04:48:45 10° ESE visible
22 May -2.3 22:58:01 10° WSW 23:01:06 38° NNW 23:04:11 10° NE visible
23 May -0.3 00:36:54 10° NW 00:38:18 12° NNW 00:39:42 10° NNE visible
23 May -0.2 02:15:02 10° N 02:15:58 11° N 02:16:53 10° NNE visible
23 May -1.7 03:50:26 10° NNW 03:53:18 27° NNE 03:56:10 10° E visible
23 May -3.2 05:26:48 10° WNW 05:29:48 34° SW 05:32:48 10° SSE visible
23 May -3.5 22:05:35 10° WSW 22:08:50 70° NW 22:12:06 10° NE visible
23 May -0.6 23:43:46 10° WNW 23:45:48 15° NNW 23:47:50 10° NNE visible
24 May -0.9 02:58:30 10° NNW 03:00:16 18° N 03:00:16 18° N visible
24 May -1.2 04:40:46 11° SE 04:40:46 11° SE 04:40:55 10° SE visible
24 May -1.0 22:50:46 10° WNW 22:53:21 21° NNW 22:55:55 10° NNE visible
25 May -0.2 00:30:27 10° N 00:30:49 10° N 00:31:10 10° N visible
25 May -0.6 02:06:35 10° NNW 02:08:14 14° NNE 02:08:14 14° NNE visible
25 May -1.8 21:57:58 10° W 22:00:57 31° NNW 22:03:56 10° NE visible
25 May -0.4 23:37:05 10° NNW 23:38:13 11° N 23:39:22 10° N visible
26 May -0.5 01:14:42 10° N 01:15:53 11° N 01:17:04 10° NNE visible
26 May -0.7 22:43:51 10° NW 22:45:40 14° NNW 22:47:29 10° NNE visible
27 May -0.3 00:22:53 10° N 00:23:18 10° N 00:23:42 10° NNE visible
27 May -0.6 01:58:09 10° NNW 01:58:53 14° NNW 01:58:53 14° NNW visible
27 May -0.9 21:50:45 10° WNW 21:53:08 18° NNW 21:55:33 10° NNE visible
28 May -0.9 01:06:12 10° NNW 01:08:08 15° NNE 01:08:08 15° NNE visible
28 May -0.5 22:37:08 10° NNW 22:38:02 11° N 22:38:57 10° N visible
29 May -0.7 00:14:16 10° NNW 00:15:41 12° NNE 00:17:07 10° NE visible
29 May -0.6 01:49:47 10° NW 01:50:03 12° NW 01:50:03 12° NW visible
29 May -0.6 23:22:22 10° N 23:23:04 10° N 23:23:47 10° NNE visible
30 May -1.2 00:57:43 10° NNW 00:59:23 20° N 00:59:23 20° N visible
